EA3CTN-13 Weather Reports


Display with metric or nautical units.
time (UTC)temp
F
wind
direction
speed
MPH
gust
MPH
rain 1hr
in
rain 24hr
in
rain mn
in
humidity
%
barometer
mb
20260831112313 85 0.0 0.0 0.00 0.00 0.00 52 1019.6
20260831111513 85 0.0 0.0 0.00 0.00 0.00 53 1019.5
20260831110713 85 0.0 0.0 0.00 0.00 0.00 52 1019.6
20260831105913 85 0.0 0.0 0.00 0.00 0.00 52 1019.6
20260831105113 85 0.0 0.0 0.00 0.00 0.00 52 1019.6
20260831104313 85 0.0 0.0 0.00 0.00 0.00 52 1019.6
20260831103513 85 0.0 0.0 0.00 0.00 0.00 52 1019.6
20260831102713 85 0.0 0.0 0.00 0.00 0.00 51 1019.6
20260831101913 85 0.0 0.0 0.00 0.00 0.00 52 1019.6
20260831101113 85 0.0 0.0 0.00 0.00 0.00 50 1019.6
20260831100313 85 0.0 0.0 0.00 0.00 0.00 51 1019.6
20260831095513 85 0.0 0.0 0.00 0.00 0.00 50 1019.6
20260831094713 85 0.0 0.0 0.00 0.00 0.00 49 1019.6
20260831093913 85 0.0 0.0 0.00 0.00 0.00 49 1019.6
20260831093113 85 0.0 0.0 0.00 0.00 0.00 47 1019.5
20260831092313 85 0.0 0.0 0.00 0.00 0.00 47 1019.5
20260831091513 85 0.0 0.0 0.00 0.00 0.00 46 1019.6
20260831090713 85 0.0 0.0 0.00 0.00 0.00 46 1019.5
20260831085913 85 0.0 0.0 0.00 0.00 0.00 46 1019.5
20260831085113 85 0.0 0.0 0.00 0.00 0.00 45 1019.5
20260831084313 84 0.0 0.0 0.00 0.00 0.00 47 1019.5
20260831083513 84 0.0 0.0 0.00 0.00 0.00 46 1019.3
20260831082713 84 0.0 0.0 0.00 0.00 0.00 46 1019.3
20260831081913 84 0.0 0.0 0.00 0.00 0.00 52 1019.2
20260831081113 84 0.0 0.0 0.00 0.00 0.00 52 1019.3
20260831080313 84 0.0 0.0 0.00 0.00 0.00 47 1019.2
20260831075513 84 0.0 0.0 0.00 0.00 0.00 46 1019.1
20260830220312 83 0.0 0.0 0.00 0.00 0.00 37 1016.9
20260830215512 83 0.0 0.0 0.00 0.00 0.00 38 1016.9
20260830214712 84 0.0 0.0 0.00 0.00 0.00 38 1016.9
20260830213912 84 0.0 0.0 0.00 0.00 0.00 38 1016.8
20260830213112 84 0.0 0.0 0.00 0.00 0.00 39 1016.8
20260830212312 84 0.0 0.0 0.00 0.00 0.00 38 1016.6
20260830211513 84 0.0 0.0 0.00 0.00 0.00 39 1016.6
20260830210712 84 0.0 0.0 0.00 0.00 0.00 39 1016.6
20260830205912 84 0.0 0.0 0.00 0.00 0.00 44 1016.7
20260830205112 84 0.0 0.0 0.00 0.00 0.00 40 1016.6
20260830204312 84 0.0 0.0 0.00 0.00 0.00 40 1016.7
20260830203512 84 0.0 0.0 0.00 0.00 0.00 42 1016.6
20260830202712 84 0.0 0.0 0.00 0.00 0.00 43 1016.5
20260830201912 84 0.0 0.0 0.00 0.00 0.00 43 1016.5
20260830201112 84 0.0 0.0 0.00 0.00 0.00 45 1016.5
20260830200312 85 0.0 0.0 0.00 0.00 0.00 47 1016.4
20260830195512 84 0.0 0.0 0.00 0.00 0.00 47 1016.4
20260830194712 84 0.0 0.0 0.00 0.00 0.00 47 1016.3
20260830193912 84 0.0 0.0 0.00 0.00 0.00 46 1016.3
20260830193112 84 0.0 0.0 0.00 0.00 0.00 48 1016.3
20260830192312 84 0.0 0.0 0.00 0.00 0.00 46 1016.1
20260830191512 84 0.0 0.0 0.00 0.00 0.00 47 1016.0
20260830190712 84 0.0 0.0 0.00 0.00 0.00 47 1015.9
20260830185912 85 0.0 0.0 0.00 0.00 0.00 46 1015.8
20260830185112 84 0.0 0.0 0.00 0.00 0.00 45 1015.7
20260830184312 84 0.0 0.0 0.00 0.00 0.00 44 1015.6
20260830183512 85 0.0 0.0 0.00 0.00 0.00 43 1015.5
20260830182712 85 0.0 0.0 0.00 0.00 0.00 42 1015.5
20260830181912 85 0.0 0.0 0.00 0.00 0.00 42 1015.6
20260830181112 85 0.0 0.0 0.00 0.00 0.00 41 1015.6
20260830180312 85 0.0 0.0 0.00 0.00 0.00 40 1015.5
20260830175512 85 0.0 0.0 0.00 0.00 0.00 39 1015.4
20260830174712 85 0.0 0.0 0.00 0.00 0.00 38 1015.4
20260830173912 86 0.0 0.0 0.00 0.00 0.00 37 1015.4
20260830173112 85 0.0 0.0 0.00 0.00 0.00 37 1015.4
20260830172312 86 0.0 0.0 0.00 0.00 0.00 36 1015.4
20260830171512 86 0.0 0.0 0.00 0.00 0.00 37 1015.4
20260830170712 86 0.0 0.0 0.00 0.00 0.00 38 1015.4
20260830165912 87 0.0 0.0 0.00 0.00 0.00 37 1015.4
20260830165112 88 0.0 0.0 0.00 0.00 0.00 36 1015.4
20260830164312 90 0.0 0.0 0.00 0.00 0.00 34 1015.4
20260830163512 94 0.0 0.0 0.00 0.00 0.00 30 1015.3
20260830162712 95 0.0 0.0 0.00 0.00 0.00 29 1015.2
20260830161912 96 0.0 0.0 0.00 0.00 0.00 28 1015.3
20260830161112 96 0.0 0.0 0.00 0.00 0.00 30 1015.2
20260830160312 91 0.0 0.0 0.00 0.00 0.00 34 1015.4
20260830155512 87 0.0 0.0 0.00 0.00 0.00 38 1015.6
20260830154712 86 0.0 0.0 0.00 0.00 0.00 38 1015.6
20260830153912 86 0.0 0.0 0.00 0.00 0.00 39 1015.7
20260830153112 86 0.0 0.0 0.00 0.00 0.00 40 1015.7
20260830152312 85 0.0 0.0 0.00 0.00 0.00 41 1015.8
20260830151512 85 0.0 0.0 0.00 0.00 0.00 41 1015.8
20260830150712 85 0.0 0.0 0.00 0.00 0.00 40 1015.8
20260830145912 85 0.0 0.0 0.00 0.00 0.00 41 1016.0
20260830145112 85 0.0 0.0 0.00 0.00 0.00 41 1016.0
20260830144312 85 0.0 0.0 0.00 0.00 0.00 41 1016.1
20260830143512 85 0.0 0.0 0.00 0.00 0.00 41 1016.1
20260830142712 85 0.0 0.0 0.00 0.00 0.00 41 1016.1
20260830141912 85 0.0 0.0 0.00 0.00 0.00 40 1016.2
20260830141112 85 0.0 0.0 0.00 0.00 0.00 41 1016.3
20260830140312 85 0.0 0.0 0.00 0.00 0.00 42 1016.4
20260830135512 85 0.0 0.0 0.00 0.00 0.00 42 1016.4
20260830134712 85 0.0 0.0 0.00 0.00 0.00 42 1016.5
20260830133912 85 0.0 0.0 0.00 0.00 0.00 42 1016.7
20260830133112 85 0.0 0.0 0.00 0.00 0.00 44 1016.8
20260830132312 85 0.0 0.0 0.00 0.00 0.00 43 1016.9
20260830131512 85 0.0 0.0 0.00 0.00 0.00 43 1016.8
20260830130712 85 0.0 0.0 0.00 0.00 0.00 44 1016.8
20260830125915 85 0.0 0.0 0.00 0.00 0.00 43 1016.8
20260830125112 86 0.0 0.0 0.00 0.00 0.00 43 1017.0
20260830124312 86 0.0 0.0 0.00 0.00 0.00 42 1017.0
20260830123512 86 0.0 0.0 0.00 0.00 0.00 42 1017.0
20260830122712 86 0.0 0.0 0.00 0.00 0.00 41 1017.1
20260830121913 86 0.0 0.0 0.00 0.00 0.00 40 1017.1
20260830121112 86 0.0 0.0 0.00 0.00 0.00 41 1017.3
20260830120312 86 0.0 0.0 0.00 0.00 0.00 41 1017.4
20260830115512 86 0.0 0.0 0.00 0.00 0.00 41 1017.4
20260830114712 86 0.0 0.0 0.00 0.00 0.00 42 1017.5
20260830113912 86 0.0 0.0 0.00 0.00 0.00 42 1017.5
20260830113112 86 0.0 0.0 0.00 0.00 0.00 41 1017.5